Location: Barletta
(41.3170°N, 16.2830°E)
Time: 16:57:31
(UTC+02:00)

ISS - Pass Details

Date: 14 May 2021
Orbit: 417 x 422 km, 51.6° (Epoch: 18 June)

Event Time Altitude Azimuth Distance (km) Brightness Sun altitude
Rises 22:47:41 0° 252° (WSW) 2,356 0.2 -23.4°
Reaches altitude 10° 22:49:52 10° 261° (W) 1,496 -0.7 -23.6°
Maximum altitude 22:53:02 39° 332° (NNW) 646 -2.4 -23.9°
Enters shadow 22:54:43 22° 28° (NNE) 964 -1.7 -24.1°
Exits shadow 22:56:36 - 45° (NE) 1,645 -0.6 -24.2°
Sets 22:58:26 0° 51° (NE) 2,373 0.2 -24.4°
